#timestamp,LO_Frequency,Hit 
1503601215.5,286047002.0,N
1503601235.3,286047000.5,N
1503601255.2,286046998.6,N
1503601275.9,286046998.1,N
1503601295.7,286046999.6,N
1503601315.6,286046998.3,N
1503601335.4,286046999.3,N
1503601355.2,286046998.3,N
1503601375.0,286046998.2,N
1503601376.0,286046998.2,N
1503601395.8,286046998.2,N
1503601415.6,286047001.1,N
1503601435.4,286047002.2,N
1503601455.3,286046999.8,N
1503601475.1,286047000.1,N
1503601495.8,286047002.8,N
1503601515.7,286047001.4,N
1503601535.5,286047001.5,N
1503601555.3,286046999.7,N
1503601575.2,286047003.9,N
1503601595.9,286047004.7,N
1503601615.7,286047005.5,N
1503601635.6,286047007.3,P
1503601655.4,286047005.8,N
1503601675.2,286047003.7,N
1503601695.1,286047001.5,N
1503601696.0,286047001.5,N
1503601715.8,286047003.7,N
1503601735.6,286047002.9,N
1503601755.5,286047005.8,N
1503601775.3,286047005.8,N
1503601795.1,286047005.4,N
1503601815.9,286047006.9,P
1503601835.7,286047002.7,N
1503601855.5,286047001.3,N
1503601875.4,286047000.2,N
1503601895.2,286047001.9,N
1503601915.0,286047002.4,N
1503601915.9,286047002.4,N
1503601935.7,286047003.7,N
1503601955.6,286047003.4,N
1503601975.4,286047002.2,N
1503601995.2,286047002.2,N
1503602015.1,286047002.6,N
1503602016.0,286047002.6,N
1503602035.8,286047004.3,N
1503602055.6,286047003.7,N
1503602075.5,286047003.9,N
1503602095.3,286047004.0,N
1503602115.1,286047003.8,N
1503602135.9,286047004.1,N
1503602155.7,286047003.0,N
1503602175.5,286047003.3,N
1503602195.4,286047005.1,P
1503602215.2,286047004.4,P
1503602235.0,286047003.7,P
1503602235.9,286047003.7,P
1503602255.8,286046999.8,N
1503602275.6,286047000.9,N
1503602295.4,286046999.0,N
1503602315.3,286046998.3,N
1503602335.1,286046998.7,N
1503602336.0,286046998.7,N
1503602355.8,286047002.4,N
1503602375.7,286046998.1,N
1503602395.5,286046998.8,N
1503602415.3,286047000.0,N
1503602435.2,286047000.9,N
1503602455.9,286047002.2,N
1503602475.7,286047000.1,N
1503602495.5,286047000.3,N
1503602515.4,286047000.4,N
1503602535.2,286046999.7,N
1503602555.0,286047002.7,N
1503602555.9,286047002.7,N
1503602575.8,286047000.1,N
1503602595.6,286047002.3,N
1503602615.4,286047002.5,N
1503602635.3,286047002.2,N
1503602655.1,286047002.5,N
1503602656.0,286047002.5,N
1503602675.8,286047002.0,N
1503602695.7,286047004.3,N
1503602715.5,286047001.6,N
1503602735.3,286047002.5,N
1503602755.2,286047004.4,N
1503602775.9,286047004.2,N
1503602795.7,286047005.5,P
1503602815.6,286047002.9,N
1503602835.4,286047004.3,N
1503602855.2,286047001.7,N
1503602875.0,286047002.0,N
1503602876.0,286047002.0,N
1503602895.8,286047003.5,N
1503602915.6,286047004.1,N
1503602935.4,286047001.3,N
1503602955.3,286047003.4,N
1503602975.1,286047004.4,P
1503602995.8,286047000.4,N
1503603015.7,286047000.0,N
1503603035.5,286047000.3,N
1503603055.3,286047001.6,N
1503603075.2,286047002.8,N
1503603095.9,286047002.1,N
1503603115.7,286047005.9,P
1503603135.6,286047003.1,N
1503603155.4,286047004.1,N
1503603175.2,286047004.4,N
1503603195.1,286047004.1,N
1503603196.0,286047004.1,P
1503603215.8,286046998.4,P
1503603235.6,286046999.3,N
1503603255.5,286046999.0,N
1503603275.3,286046999.2,N
1503603295.1,286047000.2,N
1503603315.9,286047002.8,N
1503603335.7,286047002.1,N
1503603355.5,286046999.8,N
1503603375.4,286046999.8,N
1503603395.2,286047000.2,N
1503603415.0,286047002.8,N
1503603415.9,286047002.8,N
1503603435.8,286047002.6,N
1503603455.6,286047001.8,N
1503603475.4,286047002.7,N
1503603495.3,286047001.0,N
1503603515.1,286047002.6,N
1503603516.0,286047002.6,N
1503603535.8,286047002.7,N
1503603555.6,286046999.8,N
1503603575.5,286047002.1,N
1503603595.3,286047004.3,N
1503603615.2,286047005.8,P
1503603635.9,286047001.7,N
1503603655.7,286047002.7,N
1503603675.5,286046999.8,N
1503603695.4,286047001.9,N
1503603715.2,286046999.8,N
1503603735.0,286047000.1,N
1503603735.9,286047000.1,N
1503603755.8,286047000.1,N
1503603775.6,286047002.0,N
1503603795.4,286047002.0,N
1503603815.3,286047001.6,N
1503603835.1,286047003.5,N
1503603836.0,286047003.5,N
1503603855.8,286047006.0,P
1503603875.7,286047002.0,N
1503603895.5,286047002.8,N
1503603915.3,286047002.3,N
1503603935.2,286047002.5,N
1503603955.9,286047002.3,N
1503603975.7,286047001.3,N
1503603995.6,286047003.3,N
1503604015.4,286047003.1,N
1503604035.2,286047004.3,P
1503604055.1,286046998.5,N
1503604056.0,286046998.5,N
1503604075.8,286047000.3,N
1503604095.6,286047000.1,N
1503604115.5,286047000.9,N
1503604135.3,286047002.6,N
1503604155.1,286047002.4,N
1503604175.9,286047001.3,N
1503604195.7,286047001.4,N
1503604215.5,286047002.6,N
1503604235.3,286047003.9,N
1503604255.2,286047003.6,N
1503604275.0,286047005.6,P
1503604275.9,286047005.6,N
1503604295.8,286047003.0,N
1503604315.6,286047002.9,N
1503604335.4,286047003.6,N
1503604355.2,286047003.6,N
1503604375.1,286047004.3,P
1503604376.0,286047004.3,P
1503604395.8,286046999.0,P
1503604415.7,286046996.7,N
1503604435.5,286046999.3,N
1503604455.3,286046998.2,N
1503604475.1,286046999.8,N
1503604495.9,286047000.4,N
1503604515.7,286047000.8,N
1503604535.5,286047002.4,N
1503604555.4,286047001.6,N
1503604575.2,286047003.9,N
1503604595.0,286047002.0,N
1503604595.9,286047002.0,N
1503604615.8,286046999.8,N
1503604635.6,286047002.8,N
1503604655.4,286047000.1,N
1503604675.3,286047000.7,N
1503604695.1,286046999.9,N
1503604696.0,286046999.9,N
1503604715.8,286047002.1,N
1503604735.6,286047004.2,N
1503604755.5,286047001.3,N
1503604775.3,286047004.2,N
1503604795.1,286047001.3,N
